Weather in Dobropolye

Russia / Rostov Oblast     48°42′50″N   41°54′31″E
temp.,
°C
wind,
m/s
gust,
m/s
humid.,
%
clouds,
%
prec.,
mm/h
press.,
hPa
HPBL,
m
5 december, sun
sun500:00+1ne61097100 2.5 1014310
03:00+1ene5994100 2.6 1013319
06:00+1ene51096100 0.7 1012326
09:00+2e51097100 4.4 1012394
12:00+2ne4798100 2.6 1010281
15:00+2nne5798100 3.8 1011248
18:00+1nne61097100 0.1 1013325
21:00+1nne4795100 0.1 1015294
6 december, mon
mon600:00+1nne3594100 0.0 1017216
03:00+1nne3493100 0.0 1018205
06:00+1ne2392100 0.0 1019165
09:00+1ene2394100 0.0 1020163
12:00+3se1290100 0.0 1021310
15:00+4s1280100 0.0 1021481
18:00+3ese1283100 0.0 102231
21:00+3ese348878 0.0 102390
7 december, tue
tue700:00+2se3692100 0.0 1023138
03:00+3ese3790100 0.0 1023209
06:00+3ese5988100 0.0 1023263
09:00+4se61288100 0.3 1022331
12:00+6se61382100 0.0 1021401
15:00+7se71382100 0.0 1020425
18:00+5se71589100 0.0 1020373
21:00+5se8179192 0.0 1019424
8 december, wed
wed800:00+5se71787100 0.0 1017435
03:00+4ese71885100 0.0 1016444
06:00+4ese81983100 0.0 1015496
09:00+4se71882100 0.0 1015592
12:00+7se81473100 0.0 1014764
15:00+7se71174100 0.0 1013902
18:00+7ese51175100 0.0 1013512
21:00+6ese51075100 0.0 1013312
9 december, thu
thu900:00+5ese487771 0.0 1013256
03:00+4se3883100 0.0 1013183
06:00+3sse3586100 0.0 1014104
09:00+4se349142 0.0 1014100
12:00+7s348181 0.0 1015316
15:00+8ssw4786100 0.0 1015382
18:00+7ssw3683100 0.1 1016194
21:00+7ssw4891100 0.3 1016442